| time (UTC) | temp F | wind direction | speed knots | gust knots | rain 1hr in | rain 24hr in | rain mn in | humidity % | barometer mb |
| 20260510061116 | 75 | 0 | 0.0 | 1.7 | 0.00 | 0.01 | 0.00 | 94 | 1006.0 |
| 20260510060615 | 75 | 0 | 0.0 | 1.7 | 0.00 | 0.01 | 0.00 | 94 | 1006.1 |
| 20260510060121 | 74 | 0 | 0.0 | 2.6 | 0.00 | 0.01 | 0.00 | 94 | 1006.1 |
| 20260510055621 | 74 | 0 | 0.0 | 1.7 | 0.00 | 0.01 | 0.00 | 94 | 1006.1 |
| 20260510055120 | 74 | 0 | 0.0 | 1.7 | 0.00 | 0.01 | 0.00 | 94 | 1006.1 |
| 20260510054611 | 74 | 0 | 0.0 | 1.7 | 0.00 | 0.01 | 0.00 | 94 | 1006.1 |
| 20260510054109 | 74 | 0 | 0.0 | 1.7 | 0.00 | 0.01 | 0.00 | 93 | 1006.1 |
| 20260510053608 | 74 | 0 | 0.0 | 1.7 | 0.00 | 0.01 | 0.00 | 93 | 1006.2 |
| 20260510053112 | 75 | 0 | 0.0 | 2.6 | 0.00 | 0.01 | 0.00 | 93 | 1006.2 |
| 20260510052606 | 75 | 0 | 0.0 | 2.6 | 0.00 | 0.01 | 0.00 | 93 | 1006.2 |
| 20260510052106 | 75 | 98 | 0.0 | 2.6 | 0.00 | 0.01 | 0.00 | 94 | 1006.3 |
| 20260510051611 | 75 | 0 | 0.0 | 2.6 | 0.00 | 0.01 | 0.00 | 93 | 1006.3 |
| 20260510051106 | 75 | 0 | 0.0 | 2.6 | 0.00 | 0.01 | 0.00 | 93 | 1006.3 |
| 20260510050606 | 75 | 0 | 0.0 | 2.6 | 0.00 | 0.01 | 0.00 | 93 | 1006.3 |
| 20260510050106 | 75 | 0 | 0.0 | 2.6 | 0.00 | 0.01 | 0.00 | 93 | 1006.3 |
| 20260510045606 | 75 | 0 | 0.0 | 1.7 | 0.00 | 0.01 | 0.01 | 92 | 1006.2 |
| 20260510045111 | 75 | 0 | 0.0 | 1.7 | 0.00 | 0.01 | 0.01 | 92 | 1006.2 |
| 20260510044604 | 75 | 0 | 0.0 | 1.7 | 0.00 | 0.01 | 0.01 | 92 | 1006.3 |
| 20260510044103 | 75 | 0 | 0.0 | 1.7 | 0.00 | 0.01 | 0.01 | 91 | 1006.3 |
| 20260510043601 | 75 | 114 | 0.0 | 2.6 | 0.00 | 0.01 | 0.01 | 91 | 1006.4 |
| 20260510043101 | 75 | 131 | 0.0 | 2.6 | 0.00 | 0.01 | 0.01 | 91 | 1006.5 |
| 20260510042600 | 75 | 0 | 0.0 | 1.7 | 0.00 | 0.01 | 0.01 | 90 | 1006.4 |
| 20260510042101 | 76 | 313 | 0.0 | 1.7 | 0.00 | 0.01 | 0.01 | 90 | 1006.4 |
| 20260510041601 | 76 | 0 | 0.0 | 1.7 | 0.00 | 0.01 | 0.01 | 90 | 1006.4 |
| 20260510041101 | 76 | 0 | 0.0 | 1.7 | 0.00 | 0.01 | 0.01 | 89 | 1006.4 |
| 20260510040557 | 76 | 56 | 0.0 | 1.7 | 0.00 | 0.01 | 0.01 | 89 | 1006.4 |
| 20260510040052 | 76 | 39 | 0.0 | 1.7 | 0.00 | 0.01 | 0.01 | 89 | 1006.3 |
| 20260510035552 | 76 | 354 | 0.0 | 3.5 | 0.00 | 0.01 | 0.01 | 89 | 1006.3 |
| 20260510035049 | 76 | 63 | 0.9 | 3.5 | 0.00 | 0.01 | 0.01 | 88 | 1006.4 |
| 20260510034550 | 77 | 115 | 0.9 | 3.5 | 0.00 | 0.01 | 0.01 | 89 | 1006.5 |
| 20260510034049 | 77 | 0 | 0.9 | 3.5 | 0.00 | 0.01 | 0.01 | 89 | 1006.6 |
| 20260510033550 | 77 | 72 | 0.9 | 2.6 | 0.00 | 0.01 | 0.01 | 89 | 1006.6 |
| 20260510033047 | 77 | 336 | 0.9 | 6.1 | 0.00 | 0.01 | 0.01 | 89 | 1006.6 |
| 20260510032547 | 77 | 89 | 1.7 | 6.1 | 0.00 | 0.01 | 0.01 | 90 | 1006.7 |
| 20260510032047 | 77 | 107 | 0.9 | 4.3 | 0.00 | 0.01 | 0.01 | 92 | 1006.6 |
| 20260510031547 | 77 | 173 | 0.9 | 3.5 | 0.00 | 0.01 | 0.01 | 92 | 1006.5 |
| 20260510031046 | 77 | 127 | 0.9 | 3.5 | 0.00 | 0.01 | 0.01 | 92 | 1006.6 |
| 20260510030547 | 77 | 0 | 0.9 | 5.2 | 0.00 | 0.01 | 0.01 | 91 | 1006.4 |
| 20260510030047 | 76 | 337 | 0.9 | 5.2 | 0.00 | 0.01 | 0.01 | 91 | 1006.4 |
| 20260510025547 | 76 | 324 | 0.9 | 5.2 | 0.00 | 0.01 | 0.01 | 90 | 1006.4 |
| 20260510025047 | 76 | 110 | 0.9 | 5.2 | 0.00 | 0.01 | 0.01 | 89 | 1006.2 |
| 20260510024544 | 75 | 103 | 0.9 | 2.6 | 0.00 | 0.01 | 0.01 | 89 | 1006.0 |
| 20260510024051 | 75 | 0 | 0.0 | 1.7 | 0.00 | 0.01 | 0.01 | 89 | 1005.8 |
| 20260510023545 | 75 | 0 | 0.0 | 1.7 | 0.00 | 0.01 | 0.01 | 89 | 1005.6 |
| 20260510023041 | 75 | 0 | 0.0 | 1.7 | 0.00 | 0.01 | 0.01 | 88 | 1005.3 |
| 20260510022538 | 75 | 0 | 0.0 | 1.7 | 0.00 | 0.01 | 0.01 | 87 | 1005.2 |
| 20260510022036 | 75 | 0 | 0.0 | 1.7 | 0.00 | 0.01 | 0.01 | 86 | 1005.0 |
| 20260510021533 | 75 | 0 | 0.0 | 0.9 | 0.00 | 0.01 | 0.01 | 85 | 1004.9 |
| 20260510021032 | 75 | 0 | 0.0 | 1.7 | 0.00 | 0.01 | 0.01 | 84 | 1004.8 |
| 20260510020535 | 75 | 0 | 0.0 | 1.7 | 0.00 | 0.01 | 0.01 | 84 | 1004.7 |
| 20260510020033 | 76 | 0 | 0.0 | 1.7 | 0.00 | 0.01 | 0.01 | 83 | 1004.5 |
| 20260510015533 | 76 | 47 | 0.0 | 1.7 | 0.00 | 0.01 | 0.01 | 82 | 1004.3 |
| 20260510015033 | 76 | 88 | 0.0 | 0.9 | 0.00 | 0.01 | 0.01 | 81 | 1004.1 |
| 20260510014532 | 77 | 0 | 0.0 | 0.9 | 0.00 | 0.01 | 0.01 | 80 | 1004.0 |
| 20260510014030 | 77 | 0 | 0.0 | 0.9 | 0.00 | 0.01 | 0.01 | 78 | 1003.9 |
| 20260510013530 | 78 | 0 | 0.0 | 0.9 | 0.01 | 0.01 | 0.01 | 78 | 1004.0 |
| 20260510013030 | 78 | 0 | 0.0 | 0.0 | 0.01 | 0.01 | 0.01 | 76 | 1003.9 |
| 20260510012531 | 78 | 0 | 0.0 | 1.7 | 0.01 | 0.01 | 0.01 | 75 | 1003.9 |
| 20260510012027 | 78 | 0 | 0.0 | 1.7 | 0.01 | 0.01 | 0.01 | 74 | 1003.9 |
| 20260510011524 | 79 | 0 | 0.0 | 2.6 | 0.01 | 0.01 | 0.01 | 73 | 1004.0 |
| 20260510011025 | 79 | 0 | 0.9 | 2.6 | 0.01 | 0.01 | 0.01 | 72 | 1004.1 |
| 20260510010525 | 80 | 299 | 0.9 | 3.5 | 0.01 | 0.01 | 0.01 | 72 | 1004.1 |
| 20260510010025 | 80 | 122 | 0.9 | 3.5 | 0.00 | 0.00 | 0.00 | 75 | 1004.1 |
| 20260510005525 | 82 | 112 | 0.9 | 3.5 | 0.00 | 0.00 | 0.00 | 74 | 1004.0 |
| 20260510005025 | 83 | 92 | 0.0 | 2.6 | 0.00 | 0.00 | 0.00 | 69 | 1003.8 |
| 20260510004525 | 84 | 0 | 0.0 | 1.7 | 0.00 | 0.00 | 0.00 | 67 | 1003.6 |
| 20260510004025 | 84 | 343 | 0.0 | 4.3 | 0.00 | 0.00 | 0.00 | 64 | 1003.6 |
| 20260510003522 | 85 | 0 | 0.9 | 5.2 | 0.00 | 0.00 | 0.00 | 61 | 1003.2 |
| 20260510003023 | 85 | 315 | 0.9 | 5.2 | 0.00 | 0.00 | 0.00 | 62 | 1003.3 |
| 20260510002523 | 87 | 228 | 0.9 | 5.2 | 0.00 | 0.00 | 0.00 | 64 | 1003.5 |
| 20260510002028 | 87 | 246 | 0.0 | 1.7 | 0.00 | 0.00 | 0.00 | 68 | 1003.2 |
| 20260510001523 | 88 | 102 | 0.0 | 2.6 | 0.00 | 0.00 | 0.00 | 67 | 1003.0 |
| 20260510001022 | 88 | 112 | 0.0 | 2.6 | 0.00 | 0.00 | 0.00 | 67 | 1003.0 |
| 20260510000523 | 89 | 0 | 0.0 | 1.7 | 0.00 | 0.00 | 0.00 | 67 | 1003.1 |
| 20260510000022 | 89 | 88 | 0.0 | 1.7 | 0.00 | 0.00 | 0.00 | 68 | 1003.1 |
| 20260509235521 | 90 | 0 | 0.0 | 0.9 | 0.00 | 0.00 | 0.00 | 69 | 1003.1 |
| 20260509235022 | 90 | 0 | 0.0 | 0.0 | 0.00 | 0.00 | 0.00 | 67 | 1002.9 |
| 20260509234521 | 90 | 0 | 0.0 | 0.0 | 0.00 | 0.00 | 0.00 | 66 | 1003.0 |
| 20260509234022 | 91 | 0 | 0.0 | 0.0 | 0.00 | 0.00 | 0.00 | 66 | 1002.8 |
| 20260509233522 | 91 | 0 | 0.0 | 0.0 | 0.00 | 0.00 | 0.00 | 65 | 1002.9 |
| 20260509233022 | 91 | 0 | 0.0 | 0.0 | 0.00 | 0.00 | 0.00 | 64 | 1002.9 |
| 20260509232520 | 91 | 0 | 0.0 | 1.7 | 0.00 | 0.00 | 0.00 | 63 | 1002.9 |
| 20260509232017 | 91 | 0 | 0.0 | 1.7 | 0.00 | 0.00 | 0.00 | 65 | 1002.8 |
| 20260509231520 | 92 | 0 | 0.0 | 1.7 | 0.00 | 0.00 | 0.00 | 64 | 1002.9 |
| 20260509231019 | 92 | 0 | 0.0 | 1.7 | 0.00 | 0.00 | 0.00 | 61 | 1002.9 |
| 20260509230514 | 93 | 0 | 0.0 | 0.0 | 0.00 | 0.00 | 0.00 | 60 | 1002.9 |
| 20260509230013 | 94 | 0 | 0.0 | 0.0 | 0.00 | 0.00 | 0.00 | 60 | 1002.7 |
| 20260509225512 | 95 | 0 | 0.0 | 1.7 | 0.00 | 0.00 | 0.00 | 59 | 1002.6 |
| 20260509225010 | 97 | 0 | 0.0 | 1.7 | 0.00 | 0.00 | 0.00 | 58 | 1002.7 |
| 20260509224510 | 98 | 336 | 0.0 | 0.9 | 0.00 | 0.00 | 0.00 | 55 | 1002.6 |
| 20260509224010 | 99 | 0 | 0.0 | 0.9 | 0.00 | 0.00 | 0.00 | 55 | 1002.6 |
| 20260509223509 | 100 | 0 | 0.0 | 2.6 | 0.00 | 0.00 | 0.00 | 53 | 1002.7 |
| 20260509223008 | 100 | 0 | 0.0 | 2.6 | 0.00 | 0.00 | 0.00 | 54 | 1002.7 |
| 20260509222509 | 100 | 107 | 0.0 | 2.6 | 0.00 | 0.00 | 0.00 | 52 | 1002.6 |
| 20260509222009 | 101 | 0 | 0.0 | 1.7 | 0.00 | 0.00 | 0.00 | 52 | 1002.6 |
| 20260509221508 | 101 | 141 | 0.0 | 1.7 | 0.00 | 0.00 | 0.00 | 52 | 1002.5 |
| 20260509220945 | 101 | 0 | 0.0 | 1.7 | 0.00 | 0.00 | 0.00 | 53 | 1002.5 |
| 20260509220443 | 101 | 0 | 0.0 | 1.7 | 0.00 | 0.00 | 0.00 | 52 | 1002.5 |
| 20260509215939 | 101 | 308 | 0.0 | 1.7 | 0.00 | 0.00 | 0.00 | 53 | 1002.5 |
| 20260509215440 | 102 | 321 | 0.0 | 1.7 | 0.00 | 0.00 | 0.00 | 52 | 1002.5 |
| 20260509214940 | 103 | 0 | 0.0 | 1.7 | 0.00 | 0.00 | 0.00 | 51 | 1002.5 |
| 20260509214440 | 102 | 0 | 0.0 | 1.7 | 0.00 | 0.00 | 0.00 | 53 | 1002.5 |
| 20260509213939 | 101 | 0 | 0.0 | 2.6 | 0.00 | 0.00 | 0.00 | 55 | 1002.5 |
| 20260509213445 | 101 | 0 | 0.0 | 2.6 | 0.00 | 0.00 | 0.00 | 53 | 1002.5 |
| 20260509212940 | 101 | 0 | 0.0 | 2.6 | 0.00 | 0.00 | 0.00 | 54 | 1002.6 |
| 20260509212438 | 100 | 322 | 0.0 | 2.6 | 0.00 | 0.00 | 0.00 | 54 | 1002.6 |
| 20260509211937 | 99 | 0 | 0.0 | 2.6 | 0.00 | 0.00 | 0.00 | 54 | 1002.6 |
| 20260509211437 | 98 | 0 | 0.0 | 2.6 | 0.00 | 0.00 | 0.00 | 57 | 1002.7 |
| 20260509210940 | 98 | 109 | 0.0 | 2.6 | 0.00 | 0.00 | 0.00 | 57 | 1002.7 |
| 20260509210433 | 97 | 139 | 0.0 | 1.7 | 0.00 | 0.00 | 0.00 | 57 | 1002.8 |
| 20260509205933 | 96 | 96 | 0.0 | 1.7 | 0.00 | 0.00 | 0.00 | 60 | 1002.8 |
| 20260509205434 | 95 | 0 | 0.0 | 1.7 | 0.00 | 0.00 | 0.00 | 62 | 1002.9 |
| 20260509204934 | 95 | 0 | 0.0 | 1.7 | 0.00 | 0.00 | 0.00 | 63 | 1003.0 |
| 20260509204429 | 94 | 0 | 0.0 | 1.7 | 0.00 | 0.00 | 0.00 | 63 | 1003.1 |
| 20260509203928 | 93 | 0 | 0.0 | 1.7 | 0.00 | 0.00 | 0.00 | 67 | 1003.3 |
| 20260509203428 | 94 | 277 | 0.0 | 1.7 | 0.00 | 0.00 | 0.00 | 64 | 1003.3 |
| 20260509202929 | 94 | 0 | 0.0 | 1.7 | 0.00 | 0.00 | 0.00 | 64 | 1003.3 |
| 20260509202430 | 94 | 0 | 0.0 | 1.7 | 0.00 | 0.00 | 0.00 | 63 | 1003.4 |
| 20260509201934 | 94 | 0 | 0.0 | 1.7 | 0.00 | 0.00 | 0.00 | 62 | 1003.4 |
| 20260509171214 | 89 | 286 | 0.9 | 2.6 | 0.00 | 0.00 | 0.00 | 73 | 1005.1 |
| 20260509170714 | 88 | 124 | 0.0 | 1.7 | 0.00 | 0.00 | 0.00 | 75 | 1005.0 |
| 20260509170219 | 87 | 0 | 0.0 | 1.7 | 0.00 | 0.00 | 0.00 | 77 | 1005.1 |
| 20260509165702 | 83 | 85 | 0.9 | 0.9 | 0.00 | 0.00 | 0.00 | 84 | 1005.0 |
| 20260509164330 | 83 | 0 | 0.0 | 1.7 | 0.00 | 0.00 | 0.00 | 86 | 1005.0 |
| 20260509163818 | 81 | 0 | 0.0 | 0.9 | 0.00 | 0.00 | 0.00 | 87 | 1005.2 |
| 20260509162130 | 81 | 0 | 0.0 | 0.0 | 0.00 | 0.00 | 0.00 | 86 | 1005.4 |
| 20260509161629 | 81 | 0 | 0.0 | 0.0 | 0.00 | 0.00 | 0.00 | 86 | 1005.5 |
| 20260509161129 | 80 | 0 | 0.0 | 0.9 | 0.00 | 0.00 | 0.00 | 88 | 1005.6 |
| 20260509160630 | 80 | 0 | 0.0 | 0.9 | 0.00 | 0.00 | 0.00 | 88 | 1005.5 |
| 20260509160128 | 80 | 0 | 0.0 | 0.9 | 0.00 | 0.00 | 0.00 | 88 | 1005.6 |
| 20260509155600 | 80 | 0 | 0.0 | 0.9 | 0.00 | 0.00 | 0.00 | 89 | 1005.6 |
| 20260509155100 | 79 | 0 | 0.0 | 0.9 | 0.00 | 0.00 | 0.00 | 90 | 1005.5 |
| 20260509154559 | 79 | 0 | 0.0 | 0.9 | 0.00 | 0.00 | 0.00 | 89 | 1005.6 |
| 20260509154100 | 79 | 121 | 0.0 | 0.9 | 0.00 | 0.00 | 0.00 | 90 | 1005.7 |
| 20260509153600 | 79 | 0 | 0.0 | 0.9 | 0.00 | 0.00 | 0.00 | 90 | 1005.8 |
| 20260509153100 | 79 | 124 | 0.0 | 1.7 | 0.00 | 0.00 | 0.00 | 90 | 1005.8 |
| 20260509152601 | 79 | 0 | 0.0 | 1.7 | 0.00 | 0.00 | 0.00 | 89 | 1005.8 |
| 20260509152102 | 80 | 0 | 0.0 | 0.9 | 0.00 | 0.00 | 0.00 | 90 | 1005.7 |
| 20260509151546 | 79 | 114 | 0.0 | 0.9 | 0.00 | 0.00 | 0.00 | 89 | 1005.7 |
| 20260509151046 | 79 | 0 | 0.0 | 0.9 | 0.00 | 0.00 | 0.00 | 90 | 1005.7 |
| 20260509150532 | 79 | 0 | 0.0 | 0.0 | 0.00 | 0.00 | 0.00 | 91 | 1005.5 |
| 20260509150032 | 79 | 0 | 0.0 | 0.9 | 0.00 | 0.00 | 0.00 | 92 | 1005.5 |
| 20260509145531 | 78 | 0 | 0.0 | 0.9 | 0.00 | 0.00 | 0.00 | 91 | 1005.4 |
| 20260509145032 | 78 | 0 | 0.0 | 0.0 | 0.00 | 0.00 | 0.00 | 91 | 1005.3 |
| 20260509144530 | 78 | 0 | 0.0 | 0.9 | 0.00 | 0.00 | 0.00 | 92 | 1005.3 |
| 20260509144030 | 78 | 0 | 0.0 | 0.9 | 0.00 | 0.00 | 0.00 | 93 | 1005.0 |
| 20260509143531 | 77 | 0 | 0.0 | 0.0 | 0.00 | 0.00 | 0.00 | 94 | 1005.1 |
| 20260509143030 | 77 | 0 | 0.0 | 0.0 | 0.00 | 0.00 | 0.00 | 95 | 1005.2 |
| 20260509142522 | 77 | 0 | 0.0 | 0.0 | 0.00 | 0.00 | 0.00 | 95 | 1005.2 |
| 20260509142017 | 77 | 0 | 0.0 | 0.0 | 0.00 | 0.00 | 0.00 | 96 | 1005.2 |
| 20260509141517 | 76 | 0 | 0.0 | 0.0 | 0.00 | 0.00 | 0.00 | 96 | 1005.0 |
| 20260509141002 | 76 | 0 | 0.0 | 0.0 | 0.00 | 0.00 | 0.00 | 96 | 1004.9 |
| 20260509140501 | 76 | 0 | 0.0 | 0.9 | 0.00 | 0.00 | 0.00 | 96 | 1004.7 |
| 20260509140002 | 76 | 0 | 0.0 | 0.9 | 0.00 | 0.00 | 0.00 | 96 | 1004.7 |
| 20260509135502 | 76 | 0 | 0.0 | 0.9 | 0.00 | 0.00 | 0.00 | 96 | 1004.9 |
| 20260509135001 | 76 | 0 | 0.0 | 0.9 | 0.00 | 0.00 | 0.00 | 96 | 1005.0 |
| 20260509134502 | 76 | 86 | 0.0 | 0.9 | 0.00 | 0.00 | 0.00 | 97 | 1005.1 |
| 20260509134002 | 76 | 0 | 0.0 | 0.0 | 0.00 | 0.00 | 0.00 | 97 | 1005.2 |
| 20260509133507 | 76 | 0 | 0.0 | 0.0 | 0.00 | 0.00 | 0.00 | 97 | 1005.2 |
| 20260509133002 | 75 | 0 | 0.0 | 0.9 | 0.00 | 0.00 | 0.00 | 98 | 1005.1 |
| 20260509132502 | 75 | 0 | 0.0 | 0.9 | 0.00 | 0.00 | 0.00 | 99 | 1005.2 |
| 20260509132003 | 75 | 0 | 0.0 | 0.9 | 0.00 | 0.00 | 0.00 | 99 | 1005.7 |
| 20260509131502 | 75 | 0 | 0.0 | 0.9 | 0.00 | 0.00 | 0.00 | 99 | 1005.6 |
| 20260509130949 | 74 | 0 | 0.0 | 0.9 | 0.00 | 0.00 | 0.00 | 99 | 1005.8 |
| 20260509130432 | 74 | 0 | 0.0 | 1.7 | 0.00 | 0.00 | 0.00 | 99 | 1005.7 |
| 20260509125934 | 74 | 45 | 0.0 | 1.7 | 0.00 | 0.00 | 0.00 | 99 | 1005.6 |
| 20260509125431 | 74 | 0 | 0.0 | 0.0 | 0.00 | 0.00 | 0.00 | 99 | 1005.6 |
| 20260509124934 | 74 | 0 | 0.0 | 0.0 | 0.00 | 0.00 | 0.00 | 99 | 1005.6 |
| 20260509124431 | 73 | 0 | 0.0 | 0.0 | 0.00 | 0.00 | 0.00 | 99 | 1005.5 |
| 20260509123933 | 73 | 0 | 0.0 | 0.9 | 0.00 | 0.00 | 0.00 | 99 | 1005.5 |
| 20260509123432 | 73 | 0 | 0.0 | 0.9 | 0.00 | 0.00 | 0.00 | 99 | 1005.4 |
| 20260509122934 | 73 | 0 | 0.0 | 0.9 | 0.00 | 0.00 | 0.00 | 99 | 1005.4 |
| 20260509122432 | 73 | 0 | 0.0 | 0.0 | 0.00 | 0.00 | 0.00 | 99 | 1005.3 |
| 20260509121934 | 73 | 0 | 0.0 | 0.0 | 0.00 | 0.00 | 0.00 | 99 | 1005.2 |
| 20260509121432 | 73 | 0 | 0.0 | 0.9 | 0.00 | 0.00 | 0.00 | 99 | 1005.1 |
| 20260509120939 | 73 | 0 | 0.0 | 0.9 | 0.00 | 0.00 | 0.00 | 99 | 1005.0 |
| 20260509120432 | 73 | 0 | 0.0 | 0.0 | 0.00 | 0.00 | 0.00 | 99 | 1005.0 |
| 20260509115919 | 73 | 0 | 0.0 | 0.0 | 0.00 | 0.00 | 0.00 | 99 | 1004.9 |
| 20260509115418 | 73 | 0 | 0.0 | 0.0 | 0.00 | 0.00 | 0.00 | 99 | 1004.8 |
| 20260509114924 | 73 | 0 | 0.0 | 0.9 | 0.00 | 0.00 | 0.00 | 99 | 1004.7 |
| 20260509114419 | 73 | 0 | 0.0 | 0.9 | 0.00 | 0.00 | 0.00 | 99 | 1004.9 |
| 20260509113918 | 73 | 0 | 0.0 | 0.9 | 0.00 | 0.00 | 0.00 | 99 | 1005.2 |
| 20260509113419 | 73 | 0 | 0.0 | 0.9 | 0.00 | 0.00 | 0.00 | 99 | 1005.1 |
| 20260509112919 | 73 | 0 | 0.0 | 0.0 | 0.00 | 0.00 | 0.00 | 99 | 1005.2 |
| 20260509112419 | 73 | 0 | 0.0 | 0.0 | 0.00 | 0.00 | 0.00 | 99 | 1005.2 |
| 20260509111905 | 73 | 0 | 0.0 | 0.0 | 0.00 | 0.00 | 0.00 | 99 | 1005.3 |
| 20260509111404 | 73 | 0 | 0.0 | 0.0 | 0.00 | 0.00 | 0.00 | 99 | 1005.3 |
| 20260509110904 | 73 | 0 | 0.0 | 0.0 | 0.00 | 0.00 | 0.00 | 99 | 1005.2 |
| 20260509110349 | 73 | 0 | 0.0 | 0.0 | 0.00 | 0.00 | 0.00 | 99 | 1005.2 |
| 20260509105834 | 73 | 0 | 0.0 | 0.9 | 0.00 | 0.00 | 0.00 | 99 | 1005.3 |
| 20260509105335 | 73 | 0 | 0.0 | 0.9 | 0.00 | 0.00 | 0.00 | 99 | 1005.3 |
| 20260509104835 | 73 | 25 | 0.0 | 0.9 | 0.00 | 0.00 | 0.00 | 99 | 1005.2 |
| 20260509104334 | 73 | 117 | 0.0 | 0.9 | 0.00 | 0.00 | 0.00 | 99 | 1005.1 |
| 20260509103836 | 72 | 125 | 0.0 | 0.9 | 0.00 | 0.00 | 0.00 | 100 | 1004.9 |
| 20260509103335 | 72 | 0 | 0.0 | 0.0 | 0.00 | 0.00 | 0.00 | 100 | 1004.9 |
| 20260509102835 | 73 | 0 | 0.0 | 0.0 | 0.00 | 0.00 | 0.00 | 99 | 1004.8 |
| 20260509102335 | 73 | 0 | 0.0 | 0.0 | 0.00 | 0.00 | 0.00 | 99 | 1004.8 |
| 20260509101835 | 73 | 0 | 0.0 | 0.0 | 0.00 | 0.00 | 0.00 | 99 | 1004.7 |
| 20260509101336 | 73 | 0 | 0.0 | 0.0 | 0.00 | 0.00 | 0.00 | 99 | 1004.6 |
| 20260509100835 | 73 | 0 | 0.0 | 0.0 | 0.00 | 0.00 | 0.00 | 99 | 1004.4 |
| 20260509100335 | 73 | 0 | 0.0 | 0.0 | 0.00 | 0.00 | 0.00 | 99 | 1004.2 |
| 20260509095835 | 73 | 0 | 0.0 | 0.0 | 0.00 | 0.00 | 0.00 | 98 | 1004.0 |
| 20260509095335 | 73 | 0 | 0.0 | 0.0 | 0.00 | 0.00 | 0.00 | 98 | 1003.9 |
| 20260509094835 | 73 | 0 | 0.0 | 0.0 | 0.00 | 0.00 | 0.00 | 99 | 1004.0 |
| 20260509094336 | 73 | 0 | 0.0 | 0.0 | 0.00 | 0.00 | 0.00 | 99 | 1004.1 |
| 20260509093835 | 73 | 0 | 0.0 | 0.0 | 0.00 | 0.00 | 0.00 | 99 | 1004.1 |
| 20260509093341 | 73 | 0 | 0.0 | 0.0 | 0.00 | 0.00 | 0.00 | 99 | 1004.3 |
| 20260509092822 | 74 | 0 | 0.0 | 0.0 | 0.00 | 0.00 | 0.00 | 99 | 1004.6 |
| 20260509092323 | 74 | 0 | 0.0 | 0.0 | 0.00 | 0.00 | 0.00 | 99 | 1004.6 |
| 20260509091822 | 74 | 0 | 0.0 | 0.0 | 0.00 | 0.00 | 0.00 | 99 | 1004.7 |
| 20260509091322 | 74 | 0 | 0.0 | 0.0 | 0.00 | 0.00 | 0.00 | 98 | 1004.7 |
| 20260509090824 | 74 | 0 | 0.0 | 0.0 | 0.00 | 0.00 | 0.00 | 98 | 1004.8 |
| 20260509090310 | 74 | 0 | 0.0 | 0.0 | 0.00 | 0.00 | 0.00 | 98 | 1004.7 |
| 20260509085737 | 74 | 0 | 0.0 | 0.0 | 0.00 | 0.00 | 0.00 | 98 | 1004.8 |
| 20260509085236 | 74 | 0 | 0.0 | 0.0 | 0.00 | 0.00 | 0.00 | 98 | 1004.7 |
| 20260509084737 | 74 | 0 | 0.0 | 0.0 | 0.00 | 0.00 | 0.00 | 98 | 1004.7 |
| 20260509084238 | 74 | 0 | 0.0 | 0.0 | 0.00 | 0.00 | 0.00 | 98 | 1004.9 |
| 20260509083735 | 74 | 0 | 0.0 | 0.0 | 0.00 | 0.00 | 0.00 | 98 | 1004.9 |
| 20260509083237 | 74 | 0 | 0.0 | 0.0 | 0.00 | 0.00 | 0.00 | 98 | 1004.9 |
| 20260509082736 | 74 | 0 | 0.0 | 0.0 | 0.00 | 0.00 | 0.00 | 98 | 1004.9 |
| 20260509082237 | 74 | 0 | 0.0 | 0.0 | 0.00 | 0.00 | 0.00 | 97 | 1004.7 |
| 20260509081736 | 74 | 0 | 0.0 | 0.0 | 0.00 | 0.00 | 0.00 | 98 | 1004.6 |
| 20260509081236 | 74 | 0 | 0.0 | 0.0 | 0.00 | 0.00 | 0.00 | 98 | 1004.6 |
| 20260509080736 | 74 | 0 | 0.0 | 0.0 | 0.00 | 0.00 | 0.00 | 98 | 1004.5 |
| 20260509080154 | 74 | 0 | 0.0 | 0.9 | 0.00 | 0.00 | 0.00 | 98 | 1004.5 |
| 20260509075653 | 74 | 0 | 0.0 | 0.9 | 0.00 | 0.00 | 0.00 | 98 | 1004.5 |
| 20260509075138 | 74 | 0 | 0.0 | 0.0 | 0.00 | 0.00 | 0.00 | 98 | 1004.6 |
| 20260509074640 | 74 | 0 | 0.0 | 0.9 | 0.00 | 0.00 | 0.00 | 98 | 1004.7 |
| 20260509074137 | 74 | 130 | 0.0 | 0.9 | 0.00 | 0.00 | 0.00 | 98 | 1004.7 |
| 20260509073636 | 74 | 0 | 0.0 | 0.0 | 0.00 | 0.00 | 0.00 | 98 | 1004.7 |
| 20260509073137 | 74 | 0 | 0.0 | 0.0 | 0.00 | 0.00 | 0.00 | 98 | 1004.7 |
| 20260509072137 | 74 | 0 | 0.0 | 0.0 | 0.00 | 0.00 | 0.00 | 98 | 1004.8 |
| 20260509071622 | 74 | 0 | 0.0 | 0.0 | 0.00 | 0.00 | 0.00 | 98 | 1004.7 |
| 20260509071123 | 74 | 0 | 0.0 | 0.0 | 0.00 | 0.00 | 0.00 | 98 | 1004.7 |
| 20260509070623 | 74 | 0 | 0.0 | 0.0 | 0.00 | 0.00 | 0.00 | 97 | 1004.7 |
| 20260509070124 | 74 | 0 | 0.0 | 0.0 | 0.00 | 0.00 | 0.00 | 97 | 1004.6 |
| 20260509065627 | 74 | 0 | 0.0 | 0.0 | 0.00 | 0.00 | 0.00 | 98 | 1004.8 |
| 20260509065124 | 74 | 0 | 0.0 | 1.7 | 0.00 | 0.00 | 0.00 | 97 | 1004.8 |
| 20260509064609 | 74 | 0 | 0.0 | 1.7 | 0.00 | 0.00 | 0.00 | 97 | 1004.8 |
| 20260509064110 | 74 | 2 | 0.0 | 0.9 | 0.00 | 0.00 | 0.00 | 97 | 1004.8 |
| 20260509063608 | 74 | 0 | 0.0 | 0.0 | 0.00 | 0.00 | 0.00 | 98 | 1004.9 |
| 20260509063109 | 74 | 0 | 0.0 | 0.0 | 0.00 | 0.00 | 0.00 | 97 | 1005.0 |
| 20260509062603 | 74 | 0 | 0.0 | 0.0 | 0.00 | 0.00 | 0.00 | 97 | 1005.2 |